SYR344 OSLK-LCPH

Flight info

Callsign SYR344
Flight time 0h 32m
Altitude 22000
Route NIKAS M978 LCA W195 DIPOS
Aircraft A320/M-SDE3FGHIRWY/LB1

Departure

Time 2026-04-20 15:12
Airport Latakia International Airport (OSLK)

Arrival

Time 2026-04-20 15:44
Airport Paphos International Airport (LCPH)
Time Latitude Longitude Altitude Speed Heading
2026-04-20 14:45 35.40733 35.94536 169 ft 0 kts 178°
2026-04-20 15:04 35.40730 35.94537 171 ft 3 kts 174°
2026-04-20 15:04 35.40727 35.94557 172 ft 4 kts 93°
2026-04-20 15:05 35.40728 35.94584 174 ft 15 kts 85°
2026-04-20 15:05 35.40729 35.94594 175 ft 51 kts 87°
2026-04-20 15:06 35.40729 35.94593 173 ft 0 kts 87°
2026-04-20 15:10 35.40729 35.94594 175 ft 0 kts 87°
2026-04-20 15:11 35.40735 35.94668 177 ft 16 kts 82°
2026-04-20 15:11 35.40702 35.94777 177 ft 16 kts 159°
2026-04-20 15:11 35.40416 35.94807 175 ft 80 kts 179°
2026-04-20 15:11 35.39626 35.94865 178 ft 145 kts 176°
2026-04-20 15:12 35.38508 35.95020 458 ft 172 kts 178°
2026-04-20 15:12 35.37219 35.95095 878 ft 202 kts 181°
2026-04-20 15:12 35.35725 35.94848 1195 ft 231 kts 206°
2026-04-20 15:12 35.34496 35.93547 1886 ft 242 kts 233°
2026-04-20 15:13 35.33451 35.91917 2855 ft 243 kts 232°
2026-04-20 15:13 35.32357 35.90325 3804 ft 247 kts 231°
2026-04-20 15:13 35.31224 35.88716 4727 ft 251 kts 231°
2026-04-20 15:13 35.30070 35.87085 5611 ft 255 kts 232°
2026-04-20 15:14 35.28903 35.85431 6478 ft 259 kts 232°
2026-04-20 15:14 35.27719 35.83744 7311 ft 263 kts 233°
2026-04-20 15:14 35.26522 35.82027 8142 ft 267 kts 233°
2026-04-20 15:14 35.25312 35.80284 9011 ft 270 kts 233°
2026-04-20 15:15 35.24088 35.78521 9868 ft 274 kts 233°
2026-04-20 15:15 35.22833 35.76708 10363 ft 289 kts 233°
2026-04-20 15:15 35.21489 35.74745 10613 ft 312 kts 235°
2026-04-20 15:15 35.20238 35.72474 10814 ft 332 kts 244°
2026-04-20 15:16 35.19266 35.69865 10960 ft 352 kts 253°
2026-04-20 15:16 35.18636 35.66901 11137 ft 368 kts 262°
2026-04-20 15:16 35.18204 35.63782 11653 ft 375 kts 262°
2026-04-20 15:16 35.17752 35.60625 12291 ft 379 kts 262°
2026-04-20 15:17 35.17286 35.57441 12936 ft 382 kts 262°
2026-04-20 15:17 35.16810 35.54237 13617 ft 384 kts 262°
2026-04-20 15:17 35.16331 35.51016 14192 ft 388 kts 262°
2026-04-20 15:17 35.15849 35.47757 14723 ft 392 kts 263°
2026-04-20 15:18 35.15363 35.44460 15230 ft 396 kts 263°
2026-04-20 15:18 35.14871 35.41133 15758 ft 400 kts 263°
2026-04-20 15:18 35.14375 35.37771 16278 ft 403 kts 263°
2026-04-20 15:18 35.13877 35.34385 16783 ft 405 kts 263°
2026-04-20 15:19 35.13377 35.30981 17283 ft 409 kts 263°
2026-04-20 15:19 35.12871 35.27552 17757 ft 412 kts 263°
2026-04-20 15:19 35.12359 35.24098 18215 ft 415 kts 263°
2026-04-20 15:19 35.11858 35.20743 18588 ft 418 kts 263°
2026-04-20 15:20 35.11323 35.17170 18998 ft 420 kts 263°
2026-04-20 15:20 35.10788 35.13607 19403 ft 421 kts 263°
2026-04-20 15:20 35.10264 35.10129 19793 ft 423 kts 263°
2026-04-20 15:20 35.09728 35.06588 20174 ft 425 kts 263°
2026-04-20 15:21 35.09191 35.03035 20543 ft 426 kts 263°
2026-04-20 15:21 35.08653 34.99468 20882 ft 428 kts 263°
2026-04-20 15:21 35.08115 34.95884 21195 ft 431 kts 262°
2026-04-20 15:21 35.07573 34.92280 21510 ft 433 kts 262°
2026-04-20 15:22 35.07025 34.88663 21836 ft 434 kts 262°
2026-04-20 15:22 35.06469 34.85025 21918 ft 438 kts 262°
2026-04-20 15:22 35.05908 34.81361 21920 ft 440 kts 262°
2026-04-20 15:22 35.05345 34.77688 21921 ft 441 kts 262°
2026-04-20 15:23 35.04781 34.74011 21921 ft 441 kts 262°
2026-04-20 15:23 35.04218 34.70339 21907 ft 441 kts 262°
2026-04-20 15:23 35.03651 34.66655 21922 ft 441 kts 262°
2026-04-20 15:23 35.03088 34.62989 21918 ft 441 kts 262°
2026-04-20 15:24 35.02530 34.59313 21920 ft 441 kts 262°
2026-04-20 15:24 35.01982 34.55678 21921 ft 441 kts 262°
2026-04-20 15:24 35.01421 34.51960 21916 ft 440 kts 262°
2026-04-20 15:24 35.00869 34.48328 21915 ft 440 kts 262°
2026-04-20 15:25 35.00307 34.44657 21905 ft 440 kts 262°
2026-04-20 15:25 34.99745 34.40986 21900 ft 440 kts 262°
2026-04-20 15:25 34.99183 34.37313 21898 ft 441 kts 262°
2026-04-20 15:25 34.98618 34.33641 21901 ft 441 kts 262°
2026-04-20 15:26 34.98047 34.29969 21905 ft 441 kts 262°
2026-04-20 15:26 34.97475 34.26296 21889 ft 441 kts 262°
2026-04-20 15:26 34.96903 34.22628 21894 ft 440 kts 262°
2026-04-20 15:26 34.96331 34.18962 21893 ft 440 kts 261°
2026-04-20 15:27 34.95759 34.15296 21894 ft 440 kts 261°
2026-04-20 15:27 34.95190 34.11634 21896 ft 440 kts 261°
2026-04-20 15:27 34.94619 34.07966 21894 ft 440 kts 261°
2026-04-20 15:27 34.94044 34.04300 21895 ft 440 kts 261°
2026-04-20 15:28 34.93465 34.00626 21894 ft 440 kts 261°
2026-04-20 15:28 34.92887 33.96961 21895 ft 440 kts 261°
2026-04-20 15:28 34.92307 33.93303 21898 ft 440 kts 261°
2026-04-20 15:28 34.91719 33.89641 21891 ft 440 kts 261°
2026-04-20 15:29 34.91123 33.85982 21892 ft 440 kts 261°
2026-04-20 15:29 34.90527 33.82339 21887 ft 436 kts 261°
2026-04-20 15:29 34.89934 33.78732 21898 ft 433 kts 261°
2026-04-20 15:29 34.89343 33.75135 21897 ft 433 kts 261°
2026-04-20 15:30 34.88757 33.71540 21891 ft 433 kts 261°
2026-04-20 15:30 34.88176 33.67989 21895 ft 433 kts 261°
2026-04-20 15:30 34.87582 33.64364 21567 ft 437 kts 261°
2026-04-20 15:30 34.86988 33.60687 21036 ft 436 kts 261°
2026-04-20 15:31 34.86451 33.57075 20516 ft 433 kts 262°
2026-04-20 15:31 34.85951 33.53469 20013 ft 431 kts 263°
2026-04-20 15:31 34.85470 33.49879 19528 ft 429 kts 263°
2026-04-20 15:31 34.84998 33.46355 18981 ft 426 kts 263°
2026-04-20 15:32 34.84515 33.42819 18361 ft 423 kts 263°
2026-04-20 15:32 34.84024 33.39298 17688 ft 421 kts 263°
2026-04-20 15:32 34.83528 33.35803 16976 ft 416 kts 263°
2026-04-20 15:32 34.83043 33.32432 16326 ft 393 kts 263°
2026-04-20 15:33 34.82580 33.29234 15721 ft 374 kts 263°
2026-04-20 15:33 34.82147 33.26237 15567 ft 345 kts 263°
2026-04-20 15:33 34.81747 33.23463 15411 ft 321 kts 263°
2026-04-20 15:33 34.81372 33.20834 14927 ft 309 kts 263°
2026-04-20 15:34 34.81012 33.18298 14467 ft 299 kts 263°
2026-04-20 15:34 34.80659 33.15829 13997 ft 294 kts 264°
2026-04-20 15:34 34.80311 33.13397 13507 ft 291 kts 264°
2026-04-20 15:34 34.79963 33.10969 12991 ft 290 kts 264°
2026-04-20 15:35 34.79528 33.08557 12466 ft 297 kts 255°
2026-04-20 15:35 34.78742 33.06254 11954 ft 299 kts 250°
2026-04-20 15:35 34.77904 33.03928 11453 ft 301 kts 250°
2026-04-20 15:35 34.77062 33.01586 10960 ft 303 kts 250°
2026-04-20 15:36 34.76214 32.99228 10478 ft 305 kts 250°
2026-04-20 15:36 34.75362 32.96859 9985 ft 307 kts 250°
2026-04-20 15:36 34.74503 32.94480 9438 ft 308 kts 250°
2026-04-20 15:36 34.73654 32.92135 8827 ft 298 kts 250°
2026-04-20 15:37 34.72830 32.89867 8244 ft 289 kts 251°
2026-04-20 15:37 34.72030 32.87663 7660 ft 281 kts 249°
2026-04-20 15:37 34.71250 32.85514 7095 ft 274 kts 250°
2026-04-20 15:37 34.70493 32.83421 6614 ft 266 kts 248°
2026-04-20 15:38 34.69764 32.81405 6129 ft 257 kts 250°
2026-04-20 15:38 34.69056 32.79442 5657 ft 249 kts 249°
2026-04-20 15:38 34.68368 32.77541 5177 ft 242 kts 249°
2026-04-20 15:38 34.67699 32.75697 4708 ft 236 kts 249°
2026-04-20 15:39 34.67166 32.73848 4222 ft 227 kts 265°
2026-04-20 15:39 34.67026 32.71981 3799 ft 217 kts 269°
2026-04-20 15:39 34.66899 32.70173 3498 ft 214 kts 268°
2026-04-20 15:39 34.66772 32.68386 3206 ft 210 kts 269°
2026-04-20 15:40 34.66647 32.66670 2918 ft 196 kts 268°
2026-04-20 15:40 34.66748 32.65090 2648 ft 184 kts 290°
2026-04-20 15:40 34.67172 32.63727 2451 ft 163 kts 292°
2026-04-20 15:40 34.67546 32.62502 2203 ft 147 kts 292°
2026-04-20 15:41 34.67890 32.61374 1998 ft 143 kts 292°
2026-04-20 15:41 34.68227 32.60264 1815 ft 136 kts 292°
2026-04-20 15:41 34.68553 32.59195 1642 ft 134 kts 292°
2026-04-20 15:41 34.68874 32.58141 1464 ft 132 kts 291°
2026-04-20 15:42 34.69192 32.57092 1295 ft 132 kts 291°
2026-04-20 15:42 34.69511 32.56047 1120 ft 131 kts 291°
2026-04-20 15:42 34.69829 32.55008 951 ft 131 kts 292°
2026-04-20 15:42 34.70144 32.53978 786 ft 130 kts 291°
2026-04-20 15:43 34.70460 32.52946 603 ft 130 kts 292°
2026-04-20 15:43 34.70668 32.52262 486 ft 131 kts 294°
2026-04-20 15:43 34.71087 32.50882 230 ft 133 kts 292°
2026-04-20 15:43 34.71300 32.50175 134 ft 132 kts 292°
2026-04-20 15:44 34.71696 32.48879 38 ft 100 kts 290°
2026-04-20 15:44 34.71828 32.48447 38 ft 54 kts 290°
2026-04-20 15:44 34.71947 32.48070 39 ft 43 kts 290°
2026-04-20 15:44 34.72039 32.47748 39 ft 39 kts 289°
2026-04-20 15:45 34.72129 32.47454 40 ft 36 kts 291°
2026-04-20 15:45 34.72208 32.47205 37 ft 21 kts 291°
2026-04-20 15:45 34.72316 32.47149 40 ft 18 kts 13°
2026-04-20 15:45 34.72360 32.47269 40 ft 17 kts 105°
2026-04-20 15:46 34.72322 32.47398 40 ft 16 kts 110°
2026-04-20 15:46 34.72284 32.47521 39 ft 15 kts 110°
2026-04-20 15:46 34.72247 32.47646 38 ft 17 kts 110°
2026-04-20 15:46 34.72204 32.47788 38 ft 19 kts 110°
2026-04-20 15:47 34.72152 32.47957 39 ft 23 kts 111°
2026-04-20 15:47 34.72090 32.48157 38 ft 27 kts 110°
2026-04-20 15:47 34.72027 32.48364 37 ft 19 kts 111°
2026-04-20 15:47 34.71978 32.48469 37 ft 13 kts 147°
2026-04-20 15:48 34.71886 32.48453 37 ft 15 kts 199°
2026-04-20 15:48 34.71773 32.48404 38 ft 19 kts 199°
2026-04-20 15:48 34.71633 32.48342 37 ft 24 kts 200°
2026-04-20 15:48 34.71501 32.48281 37 ft 12 kts 201°
2026-04-20 15:49 34.71411 32.48278 37 ft 15 kts 136°
2026-04-20 15:49 34.71369 32.48395 37 ft 15 kts 109°
2026-04-20 15:49 34.71337 32.48500 36 ft 7 kts 110°
2026-04-20 15:49 34.71323 32.48538 35 ft 0 kts 121°
2026-04-20 15:50 34.71322 32.48541 36 ft 1 kts 113°
2026-04-20 15:50 34.71332 32.48571 34 ft 5 kts 70°
2026-04-20 15:50 34.71344 32.48610 34 ft 5 kts 70°
2026-04-20 15:51 34.71343 32.48630 36 ft 1 kts 135°
2026-04-20 15:51 34.71335 32.48641 34 ft 2 kts 130°
2026-04-20 15:51 34.71327 32.48648 35 ft 1 kts 141°
2026-04-20 15:51 34.71322 32.48652 36 ft 0 kts 146°